[[{"header":{"parameterUnit":"m.s-1","parameterCategory":2,"la1":30.2992,"la2":30.254,"lo1":-89.0895,"lo2":-89.0443,"dy":0.0025,"dx":0.0025,"nx":19,"ny":19,"refTime":"2026-03-25T03:00:00:Z","depth":"0","parameterNumber":2,"parameterNumberName":"U-component_of_CURRENTS"},"data":[0,0,0,0.128,0.1278,0.1179,0.1179,0.1009,0.1007,0,0,0,0,0,0,0,0,0,0,0,0.1308,0.1308,0.128,0.1278,0.1179,0.1179,0.1009,0.1007,0,0,0,0,0,0,0,0,0,0,0,0.1308,0.1308,0.1307,0.1278,0.1179,0.1178,0.101,0.1092,0,0,0,0,0,0,0,0,0,0,0.1192,0.1232,0.1308,0.1307,0.1277,0.1179,0.1178,0.1096,0.1086,0.1046,0,0.1034,0,0.1023,0.0996,0.0996,0,0,0,0.1264,0.124,0.1213,0.1307,0.1276,0.118,0.122,0.1091,0.108,0.1033,0.1031,0.1025,0.102,0.0995,0.0994,0.0907,0.0907,0,0,0.127,0.1286,0.1221,0.1207,0.1254,0.1223,0.1217,0.1085,0.1074,0.1031,0.1022,0.1018,0.0994,0.0993,0.0906,0.0907,0,0,0,0.1295,0.129,0.1267,0.1213,0.1202,0.1221,0.1213,0.108,0.1072,0.102,0.1016,0.0993,0.0991,0.0906,0.0907,0.0916,0,0,0,0.1297,0.1306,0.127,0.1278,0.1206,0.1147,0.1211,0.1081,0.1066,0.1017,0.0993,0.099,0.0906,0.0906,0.0915,0.0899,0,0,0,0.1312,0.1307,0.1297,0.1279,0.1243,0.1149,0.1133,0.1077,0.1064,0.0996,0.0989,0.0906,0.0906,0.0915,0.0898,0.0864,0,0,0,0.133,0.1297,0.1297,0.1261,0.1244,0.1186,0.1134,0.1082,0.1029,0.0992,0.0906,0.0907,0.0914,0.0898,0.0864,0.0795,0.0788,0,0,0.1295,0.1293,0.1272,0.127,0.122,0.1198,0.114,0.1055,0.1026,0.0943,0.094,0.0916,0.0898,0.0864,0.0834,0.0826,0,0,0,0.1266,0.1251,0.1236,0.121,0.1177,0.1136,0.1078,0.1056,0.0996,0.1,0.0927,0.0915,0.0893,0.0853,0.0847,0.0565,0.091,0.091,0.0909,0.1218,0.1214,0.1177,0.1162,0.1133,0.109,0.1055,0.1016,0.0991,0.0987,0.0932,0.0923,0.0884,0.0877,0.0589,0.0954,0.0954,0.0954,0.0954,0.1168,0.1148,0.1144,0.111,0.1086,0.1046,0.1003,0.0995,0.0942,0.0952,0.093,0.0877,0.0871,0.0566,0.0955,0.0954,0.0954,0.0954,0.0954,0.1144,0.1132,0.1119,0.1083,0.1046,0.1018,0.0967,0.095,0.0933,0.0917,0.0848,0.0847,0.0566,0.0902,0.0902,0.0902,0.0902,0.0902,0.0902,0.1121,0.1107,0.1088,0.1056,0.1038,0.1,0.0944,0.0905,0.0846,0.0835,0.0834,0.052,0.0906,0.0894,0.0898,0.0899,0.0899,0.09,0.09,0.108,0.1088,0.1067,0.1052,0.1014,0.0959,0.0911,0.0791,0.0752,0.0707,0.0383,0.0783,0.076,0.0765,0.0749,0.0715,0.0715,0.0715,0.0715,0.1058,0.1058,0.1049,0.1036,0.1002,0.0944,0.0782,0.0633,0.0372,0.0195,0.0146,0.0111,0.0131,0.0069,0.0089,0.0058,-0.015,-0.0152,-0.0153,0.1025,0.1039,0.1029,0.1033,0.1005,0.0912,0.0705,0.0366,-0.0039,-0.0217,-0.0241,-0.0204,-0.0281,-0.0226,-0.0335,-0.0284,-0.0335,0,0]},{"header":{"parameterUnit":"m.s-1","parameterCategory":2,"la1":30.2992,"la2":30.254,"lo1":-89.0895,"lo2":-89.0443,"dy":0.0025,"dx":0.0025,"nx":19,"ny":19,"refTime":"2026-03-25T03:00:00:Z","depth":"0","parameterNumber":3,"parameterNumberName":"V-component_of_CURRENTS"},"data":[0,0,0,-0.0781,-0.0779,-0.068,-0.0679,-0.0445,-0.0443,0,0,0,0,0,0,0,0,0,0,0,-0.0811,-0.0811,-0.0781,-0.0779,-0.068,-0.0679,-0.0445,-0.0443,0,0,0,0,0,0,0,0,0,0,0,-0.0811,-0.0811,-0.0811,-0.0779,-0.068,-0.0679,-0.0446,-0.0541,0,0,0,0,0,0,0,0,0,0,-0.0648,-0.0704,-0.0811,-0.0811,-0.0779,-0.068,-0.0679,-0.0547,-0.0535,-0.0468,0,-0.0469,0,-0.046,-0.0427,-0.0426,0,0,0,-0.0753,-0.0714,-0.069,-0.0811,-0.0778,-0.068,-0.0717,-0.0541,-0.0528,-0.0452,-0.0466,-0.0458,-0.0457,-0.0426,-0.0424,-0.0265,-0.0265,0,0,-0.0758,-0.0781,-0.0699,-0.0683,-0.0771,-0.0721,-0.0715,-0.0534,-0.0524,-0.0465,-0.0453,-0.0453,-0.0424,-0.0422,-0.0265,-0.0265,0,0,0,-0.0792,-0.0785,-0.0766,-0.0691,-0.0687,-0.0718,-0.0711,-0.0532,-0.0527,-0.045,-0.045,-0.0423,-0.042,-0.0265,-0.0265,-0.0305,0,0,0,-0.0794,-0.0806,-0.0769,-0.078,-0.0692,-0.0624,-0.0713,-0.0539,-0.0519,-0.0451,-0.0423,-0.0418,-0.0265,-0.0265,-0.0304,-0.0308,0,0,0,-0.0812,-0.0808,-0.0804,-0.0782,-0.0751,-0.0628,-0.0612,-0.0535,-0.0519,-0.0426,-0.0417,-0.0265,-0.0265,-0.0303,-0.0307,-0.0243,0,0,0,-0.0827,-0.0821,-0.0804,-0.079,-0.0753,-0.0686,-0.0613,-0.0546,-0.0474,-0.0421,-0.0265,-0.0265,-0.0302,-0.0306,-0.0244,-0.0142,-0.0132,0,0,-0.0826,-0.0821,-0.0811,-0.0795,-0.0747,-0.0697,-0.0625,-0.0508,-0.0448,-0.0312,-0.0308,-0.0304,-0.0307,-0.0243,-0.0143,-0.0133,0,0,0,-0.0814,-0.0804,-0.0787,-0.0758,-0.0712,-0.0648,-0.0554,-0.0503,-0.0397,-0.0411,-0.0293,-0.0293,-0.0252,-0.0191,-0.0183,-0.008,-0.0265,-0.0265,-0.0265,-0.0812,-0.0792,-0.076,-0.0721,-0.0684,-0.06,-0.0538,-0.0448,-0.0396,-0.0369,-0.0318,-0.0288,-0.0226,-0.0218,-0.0114,-0.0316,-0.0316,-0.0316,-0.0316,-0.0786,-0.0755,-0.0735,-0.0697,-0.0646,-0.0587,-0.0487,-0.0451,-0.0335,-0.0334,-0.0291,-0.0228,-0.0212,-0.0104,-0.0319,-0.0318,-0.0318,-0.0318,-0.0318,-0.0762,-0.0742,-0.0727,-0.0679,-0.0633,-0.0577,-0.0506,-0.0441,-0.0356,-0.0323,-0.0197,-0.0195,-0.01,-0.0288,-0.0287,-0.0287,-0.0287,-0.0287,-0.0287,-0.0734,-0.0717,-0.0691,-0.0655,-0.0634,-0.0596,-0.0508,-0.0434,-0.0286,-0.021,-0.0208,-0.0066,-0.0277,-0.0278,-0.0283,-0.0284,-0.0284,-0.0284,-0.0285,-0.0669,-0.0684,-0.0654,-0.0636,-0.0603,-0.0571,-0.0506,-0.032,-0.0212,-0.011,0.0079,-0.0122,-0.008,-0.0085,-0.008,-0.0033,-0.0033,-0.0033,-0.0033,-0.0633,-0.0636,-0.062,-0.0609,-0.0585,-0.0557,-0.0423,-0.0227,0.0067,0.0233,0.0238,0.0244,0.023,0.0288,0.0275,0.0287,0.0427,0.0427,0.0428,-0.0581,-0.0599,-0.0585,-0.0601,-0.0587,-0.0539,-0.0404,-0.0131,0.0309,0.0452,0.0362,0.0342,0.0352,0.032,0.0409,0.0382,0.0401,0,0]}],[{"header":{"parameterUnit":"m.s-1","parameterCategory":2,"la1":30.2992,"la2":30.254,"lo1":-89.0895,"lo2":-89.0443,"dy":0.0025,"dx":0.0025,"nx":19,"ny":19,"refTime":"2026-03-25T03:00:00:Z","depth":"2","parameterNumber":2,"parameterNumberName":"U-component_of_CURRENTS"},"data":[0,0,0,0.0163,0.0162,0.016,0.016,0.0212,0.0212,0,0,0,0,0,0,0,0,0,0,0,0.0168,0.0168,0.0163,0.0162,0.016,0.016,0.0212,0.0212,0,0,0,0,0,0,0,0,0,0,0,0.0168,0.0168,0.0168,0.0162,0.016,0.016,0.0212,0.0202,0,0,0,0,0,0,0,0,0,0,0.0199,0.0199,0.0168,0.0168,0.0162,0.016,0.016,0.0201,0.0203,0.0225,0,0.022,0,0.0212,0.0216,0.0216,0,0,0,0.0172,0.0197,0.0188,0.0168,0.0162,0.016,0.0164,0.0202,0.0204,0.0228,0.022,0.0222,0.0213,0.0216,0.0217,0.0258,0.0258,0,0,0.0172,0.018,0.0186,0.0188,0.0156,0.0164,0.0164,0.0202,0.0209,0.0221,0.0223,0.0214,0.0217,0.0217,0.0258,0.0258,0,0,0,0.0166,0.018,0.0169,0.0187,0.0179,0.0163,0.0163,0.0207,0.0201,0.0223,0.0214,0.0217,0.0218,0.0258,0.0258,0.0276,0,0,0,0.0167,0.0175,0.0168,0.0175,0.0178,0.0187,0.0168,0.0198,0.0202,0.0214,0.0217,0.0218,0.0258,0.0258,0.0275,0.0279,0,0,0,0.0169,0.0176,0.0171,0.0175,0.0167,0.0186,0.0182,0.0199,0.0196,0.0216,0.0219,0.0258,0.0258,0.0275,0.0278,0.031,0,0,0,0.0183,0.0178,0.0172,0.0169,0.0167,0.016,0.0181,0.0194,0.021,0.0217,0.0258,0.0258,0.0275,0.0277,0.0309,0.0175,0.0169,0,0,0.0183,0.0179,0.0177,0.017,0.015,0.0162,0.0173,0.0207,0.0219,0.0251,0.0252,0.0276,0.0278,0.031,0.018,0.0173,0,0,0,0.0181,0.0176,0.017,0.016,0.0153,0.016,0.0185,0.0211,0.025,0.0226,0.0272,0.0273,0.0293,0.021,0.0205,0.0259,0.0259,0.0259,0.0258,0.0188,0.0178,0.0167,0.0153,0.0156,0.017,0.0194,0.0234,0.025,0.0274,0.0285,0.0316,0.0226,0.0221,0.0284,0.0284,0.0284,0.0284,0.0284,0.0168,0.0163,0.0161,0.0152,0.0161,0.0183,0.0224,0.0248,0.0307,0.0304,0.0323,0.0228,0.0216,0.0285,0.0285,0.0285,0.0285,0.0285,0.0285,0.0166,0.0162,0.0161,0.0157,0.018,0.0203,0.0232,0.0268,0.032,0.0339,0.0265,0.0263,0.0336,0.0361,0.0361,0.0361,0.0361,0.0361,0.0361,0.0164,0.0157,0.0163,0.0167,0.019,0.021,0.0247,0.0267,0.0271,0.027,0.0268,0.0342,0.034,0.0341,0.0364,0.0363,0.0363,0.0363,0.0363,0.0148,0.016,0.0164,0.0182,0.021,0.0194,0.0218,0.0181,0.0219,0.0197,0.023,0.0232,0.0217,0.0218,0.0216,0.0206,0.0206,0.0206,0.0206,0.0145,0.0148,0.0163,0.0189,0.0206,0.0188,0.0107,0.0006,0.0009,-0.004,-0.003,-0.0096,-0.0085,-0.012,-0.011,-0.012,-0.0217,-0.0218,-0.0219,0.0122,0.0138,0.0152,0.0185,0.0207,0.0158,0.0013,-0.0212,-0.0337,-0.0234,-0.0088,0.0175,0.0103,0.0111,0.0079,0.0086,0.0079,0,0]},{"header":{"parameterUnit":"m.s-1","parameterCategory":2,"la1":30.2992,"la2":30.254,"lo1":-89.0895,"lo2":-89.0443,"dy":0.0025,"dx":0.0025,"nx":19,"ny":19,"refTime":"2026-03-25T03:00:00:Z","depth":"2","parameterNumber":3,"parameterNumberName":"V-component_of_CURRENTS"},"data":[0,0,0,0.0166,0.0166,0.0174,0.0174,0.0184,0.0185,0,0,0,0,0,0,0,0,0,0,0,0.0168,0.0168,0.0166,0.0166,0.0174,0.0174,0.0184,0.0185,0,0,0,0,0,0,0,0,0,0,0,0.0168,0.0168,0.0169,0.0166,0.0174,0.0174,0.0184,0.0178,0,0,0,0,0,0,0,0,0,0,0.017,0.0158,0.0168,0.0169,0.0166,0.0174,0.0174,0.0178,0.0178,0.0181,0,0.0189,0,0.0186,0.0185,0.0185,0,0,0,0.0164,0.0158,0.0174,0.0169,0.0167,0.0174,0.017,0.0178,0.0179,0.0182,0.0189,0.0189,0.0186,0.0185,0.0186,0.0202,0.0202,0,0,0.0164,0.0154,0.0173,0.0175,0.0176,0.017,0.017,0.0178,0.0174,0.0189,0.0189,0.0186,0.0186,0.0186,0.0202,0.0202,0,0,0,0.0164,0.0154,0.017,0.0174,0.0175,0.017,0.0171,0.0174,0.0183,0.0189,0.0186,0.0186,0.0186,0.0202,0.0202,0.0197,0,0,0,0.0164,0.0155,0.017,0.0162,0.0175,0.0171,0.0166,0.0183,0.0183,0.0186,0.0186,0.0186,0.0202,0.0202,0.0197,0.0193,0,0,0,0.0166,0.0154,0.0161,0.0162,0.0167,0.0171,0.018,0.0183,0.0182,0.0185,0.0186,0.0202,0.0202,0.0197,0.0193,0.0246,0,0,0,0.0148,0.0157,0.0161,0.0163,0.0167,0.0184,0.018,0.0181,0.0184,0.0186,0.0202,0.0202,0.0197,0.0193,0.0245,0.0349,0.0361,0,0,0.0152,0.0157,0.0159,0.0162,0.0185,0.0182,0.0188,0.0186,0.0189,0.0199,0.0199,0.0197,0.0193,0.0245,0.0361,0.0373,0,0,0,0.0154,0.0158,0.0166,0.0175,0.019,0.0192,0.0193,0.0191,0.0192,0.0192,0.0203,0.0201,0.0234,0.0295,0.0304,0.0203,0.0203,0.0203,0.0203,0.0143,0.0155,0.0162,0.018,0.0188,0.0198,0.02,0.0197,0.02,0.0197,0.0201,0.0241,0.0305,0.0313,0.0207,0.0207,0.0207,0.0207,0.0207,0.0144,0.0142,0.0154,0.0164,0.0176,0.0179,0.0191,0.0193,0.022,0.0198,0.0232,0.0291,0.0324,0.0207,0.0207,0.0207,0.0207,0.0207,0.0207,0.0132,0.0133,0.0137,0.0144,0.0142,0.0153,0.0169,0.0181,0.0217,0.0239,0.0347,0.0348,0.0254,0.0272,0.0272,0.0272,0.0272,0.0272,0.0273,0.0114,0.0122,0.0111,0.0117,0.0105,0.0108,0.0152,0.0211,0.0322,0.0356,0.0358,0.0264,0.0261,0.0259,0.0276,0.0275,0.0275,0.0274,0.0274,0.0097,0.0095,0.0082,0.0068,0.0055,0.0098,0.0149,0.0346,0.0415,0.0513,0.0443,0.0438,0.046,0.0453,0.0456,0.0523,0.0523,0.0523,0.0523,0.0075,0.0077,0.0046,0.0022,0.0023,0.0083,0.0249,0.0394,0.0523,0.0534,0.0533,0.0519,0.0511,0.0533,0.0524,0.0527,0.0612,0.0612,0.0612,0.0056,0.005,0.0019,0.0006,0.0005,0.011,0.0298,0.0392,0.0476,0.0605,0.0443,0.0549,0.0526,0.0514,0.0544,0.0532,0.0536,0,0]}],[{"header":{"parameterUnit":"m.s-1","parameterCategory":2,"la1":30.2992,"la2":30.254,"lo1":-89.0895,"lo2":-89.0443,"dy":0.0025,"dx":0.0025,"nx":19,"ny":19,"refTime":"2026-03-25T03:00:00:Z","depth":"4","parameterNumber":2,"parameterNumberName":"U-component_of_CURRENTS"},"data":[0,0,0,-0.0483,-0.0483,-0.0457,-0.0457,-0.0347,-0.0346,0,0,0,0,0,0,0,0,0,0,0,-0.05,-0.05,-0.0483,-0.0483,-0.0457,-0.0457,-0.0348,-0.0346,0,0,0,0,0,0,0,0,0,0,0,-0.05,-0.05,-0.05,-0.0483,-0.0457,-0.0457,-0.0348,-0.0384,0,0,0,0,0,0,0,0,0,0,-0.0418,-0.0443,-0.05,-0.05,-0.0483,-0.0457,-0.0457,-0.0386,-0.0382,-0.0341,0,-0.0352,0,-0.0345,-0.0338,-0.0338,0,0,0,-0.0473,-0.0447,-0.0445,-0.05,-0.0483,-0.0457,-0.0466,-0.0384,-0.0379,-0.0334,-0.035,-0.0346,-0.0343,-0.0337,-0.0337,-0.0278,-0.0278,0,0,-0.0475,-0.0483,-0.045,-0.0443,-0.0494,-0.0467,-0.0465,-0.0382,-0.0378,-0.035,-0.0344,-0.0342,-0.0336,-0.0336,-0.0278,-0.0278,0,0,0,-0.0485,-0.0484,-0.0485,-0.0447,-0.0448,-0.0466,-0.0465,-0.0382,-0.0385,-0.0343,-0.034,-0.0336,-0.0334,-0.0277,-0.0278,-0.0299,0,0,0,-0.0486,-0.0491,-0.0487,-0.0489,-0.045,-0.0423,-0.0467,-0.0391,-0.0381,-0.0341,-0.0336,-0.0333,-0.0277,-0.0278,-0.0297,-0.0326,0,0,0,-0.0498,-0.0491,-0.0496,-0.049,-0.0483,-0.0425,-0.0423,-0.0389,-0.0379,-0.0338,-0.0333,-0.0277,-0.0278,-0.0296,-0.0324,-0.032,0,0,0,-0.0496,-0.0507,-0.0497,-0.0503,-0.0484,-0.0471,-0.0423,-0.0391,-0.0358,-0.0335,-0.0277,-0.0278,-0.0296,-0.0322,-0.0319,-0.0303,0,0,0,-0.0507,-0.0508,-0.0511,-0.0501,-0.0502,-0.0472,-0.0455,-0.0387,-0.0355,-0.0296,-0.0295,-0.0298,-0.0323,-0.032,-0.0341,0,0,0,0,-0.0512,-0.0519,-0.0516,-0.0515,-0.05,-0.0484,-0.0426,-0.0397,-0.0345,-0.0341,-0.0305,-0.0321,-0.0318,-0.0305,-0.0281,-0.0281,-0.0281,-0.0281,-0.0281,-0.0524,-0.0524,-0.053,-0.0526,-0.0519,-0.048,-0.0459,-0.0411,-0.0361,-0.0346,-0.0342,-0.0365,-0.0353,-0.0337,-0.0337,-0.0337,-0.0337,-0.0337,-0.0338,-0.0531,-0.0532,-0.0542,-0.055,-0.054,-0.0529,-0.0478,-0.0442,-0.0395,-0.0365,-0.0359,-0.0335,-0.034,-0.0339,-0.0339,-0.0339,-0.0339,-0.0338,-0.0338,-0.0521,-0.0525,-0.0539,-0.0559,-0.0578,-0.0561,-0.0558,-0.0502,-0.0436,-0.0427,-0.0391,-0.0381,-0.0373,-0.0409,-0.0409,-0.0409,-0.0409,-0.0409,-0.0409,-0.0499,-0.0517,-0.054,-0.0571,-0.0598,-0.0615,-0.0593,-0.0566,-0.0498,-0.0431,-0.043,-0.0388,-0.0386,-0.0377,-0.0411,-0.0411,-0.041,-0.041,-0.041,-0.048,-0.0496,-0.0533,-0.0563,-0.0618,-0.0626,-0.0632,-0.0574,-0.0531,-0.0483,-0.0421,-0.042,-0.0411,-0.0408,-0.0399,-0.0441,-0.0441,-0.0441,0,-0.0468,-0.0477,-0.0531,-0.0576,-0.0601,-0.0627,-0.0586,-0.0567,-0.0494,-0.0463,-0.0516,-0.0447,-0.0445,-0.0436,-0.0433,-0.0425,0,0,0,-0.0458,-0.0483,-0.0514,-0.0563,-0.0593,-0.0563,-0.0569,-0.054,-0.0501,-0.0494,-0.0439,-0.0439,-0.0486,-0.0416,-0.04,-0.0397,-0.0382,0,0]},{"header":{"parameterUnit":"m.s-1","parameterCategory":2,"la1":30.2992,"la2":30.254,"lo1":-89.0895,"lo2":-89.0443,"dy":0.0025,"dx":0.0025,"nx":19,"ny":19,"refTime":"2026-03-25T03:00:00:Z","depth":"4","parameterNumber":3,"parameterNumberName":"V-component_of_CURRENTS"},"data":[0,0,0,0.0285,0.0285,0.0321,0.0321,0.0338,0.0338,0,0,0,0,0,0,0,0,0,0,0,0.0282,0.0282,0.0285,0.0285,0.0321,0.0321,0.0338,0.0338,0,0,0,0,0,0,0,0,0,0,0,0.0282,0.0282,0.0282,0.0285,0.0321,0.0321,0.0338,0.0321,0,0,0,0,0,0,0,0,0,0,0.029,0.0288,0.0282,0.0282,0.0286,0.0321,0.0321,0.032,0.0322,0.0311,0,0.0321,0,0.0321,0.0338,0.0338,0,0,0,0.0293,0.0287,0.0294,0.0282,0.0286,0.0321,0.0307,0.0321,0.0323,0.0313,0.0321,0.0321,0.0322,0.0338,0.0338,0.0352,0.0352,0,0,0.0292,0.0289,0.0293,0.0295,0.0299,0.0306,0.0308,0.0323,0.0326,0.0321,0.0322,0.0322,0.0338,0.0338,0.0352,0.0352,0,0,0,0.028,0.0288,0.0296,0.0294,0.0298,0.0307,0.031,0.0326,0.0328,0.0322,0.0322,0.0338,0.0338,0.0351,0.0352,0.0371,0,0,0,0.028,0.0281,0.0295,0.0294,0.0298,0.0316,0.0313,0.0328,0.0329,0.0322,0.0338,0.0338,0.0351,0.0352,0.037,0.0383,0,0,0,0.028,0.028,0.0286,0.0294,0.0304,0.0316,0.0319,0.0329,0.0328,0.0338,0.0338,0.0351,0.0352,0.0369,0.0381,0.0392,0,0,0,0.0274,0.0274,0.0286,0.0291,0.0304,0.0321,0.032,0.0332,0.0342,0.0338,0.0351,0.0352,0.0369,0.038,0.0391,0.0314,0,0,0,0.0266,0.0273,0.0276,0.0287,0.0295,0.0317,0.0336,0.0346,0.0345,0.0345,0.0346,0.037,0.0381,0.0392,0.034,0,0,0,0,0.0269,0.0271,0.0278,0.0289,0.0305,0.0333,0.0347,0.0355,0.0369,0.035,0.0373,0.038,0.0386,0.0338,0.0354,0.0354,0.0354,0.0354,0.0354,0.0249,0.0262,0.0266,0.0288,0.0307,0.0342,0.0367,0.0381,0.0378,0.0389,0.0398,0.0423,0.0373,0.0398,0.0398,0.0398,0.0398,0.0398,0.0398,0.023,0.0228,0.0257,0.0267,0.0305,0.0333,0.0381,0.0396,0.043,0.042,0.0425,0.0364,0.04,0.0399,0.0399,0.0399,0.0399,0.0399,0.0399,0.0209,0.0206,0.0224,0.0244,0.0284,0.0336,0.0383,0.0429,0.0443,0.0461,0.0407,0.0438,0.0434,0.0463,0.0463,0.0463,0.0463,0.0463,0.0464,0.0172,0.0185,0.0197,0.0225,0.0257,0.0309,0.04,0.0424,0.0455,0.0425,0.047,0.0445,0.0443,0.0438,0.0465,0.0465,0.0465,0.0465,0.0464,0.0132,0.0144,0.0164,0.0191,0.0257,0.0283,0.0372,0.0402,0.0422,0.0393,0.0401,0.0404,0.039,0.039,0.0382,0.0394,0.0393,0.0393,0,0.0103,0.0108,0.0152,0.0201,0.0236,0.0284,0.0295,0.0326,0.0347,0.0335,0.0402,0.0411,0.0413,0.0397,0.0395,0.0385,0,0,0,0.0077,0.0101,0.0134,0.0195,0.0241,0.0258,0.0298,0.03,0.0341,0.0328,0.037,0.0376,0.0414,0.047,0.0456,0.0454,0.0444,0,0]}]]